Wind_Speed
16 16 16 15 14 14 13 13 13 13 12 12 12 12 12 12 11 11 11 11 11 11 11 11 11 10 9 9 9 10 10 9 9 9 9 9 9 9 9 9 9 9 9
16 16 16 16 15 14 14 14 13 13 13 13 13 13 13 12 12 12 12 12 12 13 13 12 12 12 12 11 11 11 11 10 10 10 9 10 10 9 10 10 9 9 10
17 17 16 16 15 15 14 14 14 14 14 14 14 13 13 13 13 13 13 14 14 14 14 14 14 14 13 13 13 12 12 12 11 11 10 10 10 10 10 10 10 10 10
18 17 17 16 16 15 15 15 15 15 15 14 14 14 14 14 14 14 14 15 15 15 15 16 15 15 14 14 14 13 13 13 13 13 12 12 12 11 11 11 11 11 11
18 18 17 17 16 16 16 15 15 16 15 16 15 15 14 14 15 15 15 16 16 16 16 16 16 16 16 15 15 15 14 14 14 14 14 14 14 14 13 13 12 12 12
20 19 18 18 17 17 17 16 16 16 16 16 16 16 15 15 15 15 16 16 16 16 17 17 17 17 17 17 17 17 16 16 16 15 15 15 15 15 15 15 14 14 14
21 20 20 20 19 18 18 18 18 18 17 17 17 17 17 16 16 16 16 16 17 17 18 18 18 18 18 18 18 18 18 17 17 17 16 16 16 16 16 16 16 16 15
22 22 21 21 21 20 20 20 19 19 19 19 18 18 18 17 17 17 17 17 17 18 18 18 18 19 19 19 19 18 18 18 18 18 17 17 18 17 17 16 16 17 17
23 23 23 22 22 21 21 20 21 20 20 20 19 19 19 18 17 17 18 18 18 18 19 19 19 19 19 20 20 20 19 19 19 19 19 18 18 18 18 18 17 17 18
25 25 24 24 23 22 22 22 22 21 21 20 20 20 20 19 19 18 19 19 19 19 19 20 20 20 20 21 21 21 21 20 20 20 20 20 19 19 19 19 18 17 18
27 26 26 25 24 23 23 23 22 22 22 21 21 21 21 21 20 20 20 20 21 21 21 21 21 21 22 22 22 22 22 21 21 21 21 21 21 20 20 20 20 20 19
28 27 26 26 25 25 25 24 24 23 23 22 22 22 22 22 22 22 22 21 21 22 22 22 22 23 23 23 23 23 23 22 22 22 22 22 22 22 22 22 22 22 22
29 28 27 27 26 26 25 25 25 25 24 24 24 23 23 23 23 23 23 23 23 23 23 23 24 24 25 25 25 25 25 24 24 24 23 23 23 23 23 23 23 24 23
30 30 29 28 27 27 26 26 26 26 25 25 25 24 24 24 25 25 25 25 24 24 24 24 25 26 26 26 26 26 26 25 26 26 26 26 25 25 24 24 25 24 24
31 31 30 30 29 28 28 28 27 27 27 27 26 26 26 26 26 26 26 26 26 26 26 26 26 27 27 28 28 28 27 27 27 27 27 27 27 26 26 26 26 26 26
33 32 32 31 31 30 30 30 29 29 28 28 28 28 28 28 28 27 27 27 27 27 27 27 28 28 28 28 28 28 29 28 28 29 29 29 29 28 28 28 28 29 28
33 33 33 33 32 32 31 31 31 31 30 29 29 29 29 29 29 28 28 28 28 28 28 28 29 29 29 29 30 30 30 30 30 31 31 31 31 31 31 30 30 31 31
33 33 33 34 34 33 33 33 32 32 31 31 30 30 30 30 30 30 29 28 29 28 28 28 28 29 30 29 29 30 30 31 32 33 33 33 33 33 33 32 32 32 32
34 34 35 34 34 34 34 34 33 33 33 32 32 31 31 31 30 30 30 29 29 29 29 28 28 28 29 30 30 30 31 31 32 33 33 34 34 35 34 34 34 34 35
35 36 36 36 35 35 34 34 34 33 34 34 33 33 32 31 31 30 30 29 29 30 30 30 30 30 30 30 31 31 32 32 33 33 34 35 35 36 36 36 36 36 36
36 36 37 37 37 37 36 36 35 35 34 34 34 34 33 32 31 31 31 30 30 30 31 31 31 31 31 31 31 32 33 33 33 34 34 35 36 36 37 38 38 38 38
37 37 37 37 38 38 37 36 37 36 35 35 34 34 34 33 33 33 33 32 32 31 32 32 33 32 32 33 33 33 33 34 34 34 35 35 36 36 37 38 39 40 41
38 38 38 39 38 38 38 37 37 37 36 36 35 35 35 34 34 34 34 33 33 32 33 34 34 33 33 33 33 33 34 35 36 36 36 37 37 38 39 39 40 41 42
38 39 39 40 39 39 39 38 38 37 37 37 37 36 36 36 36 35 34 34 34 34 34 35 35 35 35 35 35 35 36 37 38 38 38 38 39 40 41 42 42 43 44
38 38 38 39 39 40 40 40 38 38 38 38 37 37 36 37 37 37 36 36 35 35 35 36 36 37 37 37 37 37 38 38 39 39 40 41 42 42 43 44 44 44 45
39 40 39 39 40 40 40 40 39 39 39 38 38 38 38 38 38 38 38 37 36 37 37 37 37 38 38 39 39 39 39 39 40 41 41 42 43 44 45 45 46 46 46
Wind_Direction
256 256 256 256 255 252 250 249 249 251 252 253 253 254 255 253 252 252 255 254 254 254 254 254 255 256 257 258 255 254 254 255 256 254 253 253 251 248 244 243 245 244 240
257 257 256 254 254 252 251 250 250 251 252 253 254 254 254 253 253 253 256 257 256 255 255 257 257 256 255 255 257 256 254 253 254 254 254 253 248 246 245 243 246 246 243
256 256 255 253 251 251 250 250 252 252 253 254 256 255 254 254 255 256 258 258 258 258 258 256 257 257 256 254 255 256 253 251 251 254 253 253 252 248 245 246 246 246 245
256 255 254 253 251 249 249 250 253 254 255 255 255 255 255 256 257 258 259 259 261 260 257 255 256 256 257 254 254 256 254 250 250 252 252 252 252 251 248 246 245 246 247
255 254 253 253 252 250 250 250 252 253 254 255 255 256 258 259 259 260 261 261 261 259 256 255 255 255 256 257 256 255 254 251 250 252 252 252 250 249 247 247 248 247 248
254 253 253 253 252 252 250 250 251 252 254 255 256 257 259 260 261 261 260 261 261 259 256 255 255 256 256 257 257 255 254 253 251 251 252 252 252 249 249 251 252 251 249
254 253 252 253 252 252 250 251 253 254 253 254 256 257 258 260 263 262 261 260 261 261 259 256 254 255 256 256 256 255 254 254 252 250 251 253 253 252 251 252 253 253 252
253 253 252 253 252 252 250 251 254 254 254 254 255 255 256 259 261 260 260 262 263 262 261 259 257 256 255 256 255 253 252 252 251 251 250 252 253 253 252 251 253 252 253
253 253 252 253 253 253 251 251 253 253 253 254 254 254 253 256 259 260 261 262 263 261 260 259 259 258 255 255 255 254 253 252 250 252 252 250 251 252 254 253 253 253 253
252 252 253 252 252 253 252 252 253 253 253 255 255 255 255 256 259 260 262 263 262 261 259 259 259 259 258 256 256 255 255 253 252 252 254 254 253 253 254 255 254 254 255
251 251 252 251 251 251 252 252 252 253 254 254 254 255 257 258 259 261 262 263 263 261 261 259 258 257 257 257 256 255 255 254 254 253 255 255 256 256 255 255 256 255 254
251 251 250 250 250 250 251 251 251 253 254 253 254 255 256 257 258 260 261 262 262 261 260 259 257 257 257 256 256 256 255 256 255 255 256 257 258 259 260 258 257 256 255
250 250 249 249 250 250 250 250 251 252 254 254 255 255 255 257 257 259 260 261 262 262 261 259 256 256 256 256 256 256 256 255 256 255 255 257 259 259 260 260 259 258 257
248 249 249 249 249 249 249 249 250 252 254 255 255 255 255 256 258 259 260 261 262 261 260 259 258 258 256 256 255 256 256 256 256 256 257 258 258 259 260 260 260 260 260
249 248 249 249 249 249 249 249 250 251 253 255 255 255 256 257 258 260 261 262 261 260 260 259 261 257 256 256 256 257 257 257 257 257 257 258 258 259 260 261 262 262 261
249 248 247 248 247 247 248 249 250 252 253 254 254 255 256 257 258 259 261 262 262 261 260 260 260 258 257 257 258 259 258 258 257 257 258 258 259 259 260 260 262 264 264
247 246 246 247 247 247 248 249 251 252 253 254 254 255 256 257 258 260 261 262 262 263 262 261 260 259 259 259 259 260 259 259 258 258 257 258 259 260 260 261 263 264 265
247 246 245 246 246 247 248 249 250 251 252 253 253 254 255 256 258 260 261 262 262 262 262 262 262 261 260 259 259 259 259 259 259 258 258 258 259 260 261 262 263 264 265
246 246 246 245 246 247 248 249 249 250 252 253 254 254 255 256 258 260 261 262 261 261 262 262 261 262 261 259 259 259 259 259 259 259 259 259 260 261 262 263 264 264 265
246 247 246 245 245 246 247 247 249 251 252 253 255 256 256 257 257 258 260 262 262 261 262 262 262 262 262 261 260 260 260 260 260 261 261 261 261 261 261 263 264 264 265
247 246 245 245 246 247 248 249 250 250 252 253 254 255 255 256 256 257 259 261 262 262 263 263 263 263 262 262 262 263 263 262 263 264 263 262 262 263 263 263 263 265 266
247 246 244 245 245 246 248 249 250 250 250 253 254 254 254 254 255 256 258 261 263 263 263 264 264 262 263 263 264 265 264 262 263 265 264 264 264 264 264 264 264 265 267
247 248 248 247 247 247 247 249 250 250 250 252 253 255 256 256 256 258 259 261 264 265 265 264 263 262 264 264 264 266 265 264 263 265 265 265 265 265 265 266 267 268 268
247 248 249 248 249 248 249 249 250 250 250 251 253 255 256 256 256 257 259 261 263 265 264 263 262 263 264 265 265 265 266 266 265 265 265 265 266 266 267 268 269 270 270
246 248 249 249 249 250 250 250 249 249 249 251 253 254 255 256 256 257 258 260 262 264 264 264 263 264 266 266 267 267 267 267 266 265 265 266 267 268 268 269 270 271 272
247 248 249 250 251 251 250 250 249 249 250 251 253 253 255 256 256 257 257 259 263 265 265 265 265 266 267 268 268 269 269 268 267 267 266 267 268 269 270 271 271 272 272
Height
5807 5807 5808 5809 5811 5812 5812 5814 5815 5816 5817 5818 5819 5820 5821 5822 5823 5824 5825 5826 5827 5828 5829 5830 5831 5832 5833 5834 5835 5836 5837 5837 5838 5839 5840 5841 5842 5843 5844 5845 5845 5846 5847
5804 5805 5806 5806 5808 5809 5810 5811 5812 5813 5814 5815 5816 5818 5819 5820 5821 5822 5823 5824 5825 5826 5827 5828 5829 5830 5831 5832 5833 5834 5835 5836 5836 5837 5838 5839 5840 5841 5842 5843 5844 5845 5845
5800 5801 5802 5803 5805 5806 5807 5808 5810 5811 5812 5813 5814 5815 5816 5817 5818 5819 5820 5822 5823 5824 5825 5826 5827 5828 5829 5830 5831 5832 5833 5834 5835 5836 5837 5837 5838 5839 5840 5841 5842 5843 5844
5797 5798 5799 5800 5802 5803 5804 5805 5807 5808 5809 5810 5811 5812 5813 5815 5816 5817 5818 5819 5820 5821 5822 5823 5824 5825 5826 5827 5828 5829 5830 5831 5832 5833 5835 5835 5836 5837 5838 5839 5840 5841 5842
5793 5794 5796 5797 5798 5800 5801 5802 5804 5805 5806 5807 5808 5809 5810 5812 5813 5814 5815 5816 5817 5818 5819 5820 5821 5822 5823 5824 5825 5826 5828 5829 5830 5831 5832 5833 5834 5835 5836 5837 5837 5838 5840
5789 5790 5792 5793 5795 5796 5798 5799 5800 5801 5802 5804 5805 5806 5807 5808 5809 5810 5811 5812 5814 5815 5816 5817 5818 5819 5820 5821 5822 5823 5825 5826 5827 5828 5829 5830 5831 5832 5833 5834 5835 5836 5837
5785 5786 5788 5789 5791 5792 5794 5795 5796 5798 5799 5800 5801 5802 5804 5805 5806 5807 5808 5809 5810 5811 5812 5813 5814 5815 5816 5818 5819 5820 5821 5823 5824 5825 5826 5827 5828 5829 5830 5831 5832 5833 5834
5780 5782 5784 5785 5787 5789 5790 5791 5793 5794 5795 5796 5797 5799 5800 5801 5802 5803 5804 5805 5806 5807 5808 5809 5810 5811 5813 5814 5815 5816 5817 5819 5820 5822 5823 5824 5825 5826 5827 5828 5829 5830 5831
5775 5777 5779 5781 5782 5784 5786 5787 5789 5790 5791 5792 5793 5794 5796 5797 5798 5799 5800 5801 5802 5803 5804 5805 5806 5807 5808 5810 5811 5812 5814 5815 5816 5818 5819 5820 5821 5822 5823 5824 5825 5826 5827
5770 5772 5774 5776 5778 5779 5781 5783 5784 5785 5786 5788 5789 5790 5791 5792 5793 5795 5796 5797 5798 5799 5800 5801 5802 5803 5804 5805 5806 5808 5809 5811 5812 5814 5815 5816 5817 5818 5819 5820 5821 5822 5823
5765 5767 5769 5770 5772 5774 5776 5778 5779 5781 5782 5783 5784 5785 5787 5788 5789 5790 5791 5792 5793 5794 5795 5796 5797 5798 5799 5800 5802 5803 5805 5806 5808 5809 5810 5811 5813 5814 5815 5816 5817 5818 5819
5759 5761 5763 5765 5767 5769 5771 5772 5774 5775 5777 5778 5779 5781 5782 5783 5784 5785 5786 5787 5788 5789 5790 5791 5792 5793 5795 5796 5797 5798 5800 5801 5803 5804 5806 5807 5808 5809 5811 5812 5813 5814 5815
5753 5755 5757 5759 5761 5763 5765 5767 5768 5770 5771 5773 5774 5775 5777 5778 5779 5780 5781 5782 5783 5784 5785 5786 5787 5788 5789 5790 5792 5793 5794 5796 5797 5799 5800 5802 5803 5804 5805 5807 5808 5809 5810
5746 5748 5751 5753 5755 5757 5759 5761 5763 5764 5766 5767 5769 5770 5771 5772 5773 5774 5775 5776 5777 5778 5779 5780 5781 5782 5783 5784 5786 5787 5789 5790 5792 5793 5795 5796 5798 5799 5800 5801 5802 5804 5805
5738 5741 5744 5746 5748 5750 5752 5754 5756 5758 5760 5761 5763 5764 5765 5766 5767 5768 5769 5770 5771 5772 5773 5774 5775 5776 5777 5778 5779 5781 5782 5784 5785 5787 5789 5790 5792 5793 5794 5795 5796 5798 5799
5731 5734 5737 5739 5741 5743 5746 5748 5750 5751 5753 5755 5756 5758 5759 5760 5761 5762 5763 5764 5765 5765 5766 5767 5768 5769 5770 5771 5772 5774 5776 5777 5779 5780 5782 5784 5785 5786 5787 5789 5790 5791 5792
5723 5726 5729 5732 5734 5736 5738 5741 5743 5745 5746 5748 5749 5751 5752 5753 5754 5755 5756 5757 5758 5759 5760 5760 5761 5762 5763 5764 5765 5767 5768 5770 5772 5773 5775 5776 5778 5779 5780 5781 5783 5783 5784
5716 5719 5722 5724 5726 5729 5731 5733 5735 5737 5739 5741 5742 5744 5745 5746 5747 5748 5749 5750 5751 5752 5753 5753 5754 5755 5756 5757 5758 5759 5760 5762 5764 5765 5767 5768 5770 5771 5773 5774 5775 5775 5776
5708 5711 5713 5716 5718 5721 5723 5726 5728 5730 5732 5733 5735 5736 5737 5739 5740 5741 5742 5743 5744 5745 5746 5747 5747 5748 5748 5749 5750 5751 5752 5754 5755 5757 5758 5760 5761 5763 5764 5765 5766 5767 5768
5699 5702 5704 5707 5710 5712 5715 5717 5720 5722 5724 5726 5727 5729 5730 5731 5733 5734 5735 5736 5737 5737 5738 5739 5740 5740 5741 5742 5742 5743 5745 5746 5747 5748 5750 5751 5752 5754 5755 5756 5757 5758 5759
5691 5693 5695 5698 5701 5704 5707 5709 5712 5714 5716 5717 5719 5721 5722 5724 5725 5726 5727 5728 5729 5730 5730 5731 5731 5732 5733 5734 5735 5735 5736 5737 5739 5740 5741 5742 5743 5745 5746 5747 5748 5749 5749
5681 5684 5686 5689 5692 5695 5698 5700 5703 5705 5707 5709 5711 5712 5714 5715 5717 5719 5720 5721 5721 5722 5722 5722 5723 5723 5724 5725 5726 5727 5728 5730 5730 5731 5732 5733 5734 5735 5736 5737 5738 5739 5739
5672 5675 5678 5680 5683 5686 5689 5691 5694 5696 5698 5701 5702 5704 5705 5707 5709 5710 5711 5712 5713 5713 5714 5714 5714 5715 5715 5716 5717 5718 5719 5720 5722 5723 5723 5723 5724 5725 5726 5727 5728 5728 5729
5664 5666 5669 5671 5674 5677 5679 5682 5684 5687 5690 5692 5694 5695 5697 5699 5700 5701 5702 5704 5704 5705 5706 5705 5706 5706 5707 5707 5708 5709 5710 5710 5712 5713 5713 5713 5714 5714 5715 5716 5716 5717 5717
5654 5657 5660 5662 5665 5668 5670 5672 5675 5678 5681 5683 5685 5687 5688 5690 5691 5692 5694 5695 5696 5696 5696 5696 5697 5697 5698 5698 5699 5699 5699 5700 5701 5702 5703 5703 5703 5703 5704 5704 5704 5705 5705
5645 5648 5650 5653 5656 5658 5661 5663 5666 5669 5671 5674 5676 5678 5679 5681 5682 5683 5684 5685 5686 5687 5687 5687 5688 5688 5688 5689 5689 5689 5689 5690 5690 5691 5692 5692 5692 5692 5692 5692 5692 5692 5692